SARL

Details ICAO SARL (AOL)
Name PASO DE LOS LIBRES
Region Argentina
Timezone America/Argentina/Cordoba (UTC-3.0)
Plans Departing 0
Arriving 0
Stats Elevation 230 ft / 70 m (AMSL)
Location -29.689424° -57.152076°
Runways 1
Magnetic Variation 12.704° W
Sunrise 2018-05-20 10:30:18 UTC / 2018-05-20 07:30:18 Local
Sunset 2018-05-20 21:02:50 UTC / 2018-05-20 18:02:50 Local
Advertisement - Login to hide

Runways

ID Width Length Bearing (true) Bearing (mag) Surface Threshold Offset Overrun Length
18 147 ft / 45 m 7,446 ft / 2,269 m 170.90° 183.60° Asphalt 230 ft / 70 m 0 ft / 0 m
36 147 ft / 45 m 7,446 ft / 2,269 m 350.90° 3.60° Asphalt 1,010 ft / 308 m 0 ft / 0 m

Map

Weather


0- 5 10 15 20 25 30 35+ Temperature / ° C

Clouds and Precipitation
Forecast for 2018-05-20 12:00 UTC. Updated an hour ago

Ground ~20,000 ft ~40,000 ft Winds

METAR

SARL 201000Z 29006KT CAVOK 07/06 Q1018

TAF

Not found

Frequencies

Tower 120.30 MHz LIBRES TWR/APP
Tower 118.10 MHz LIBRES TWR/APP
Tower 118.50 MHz LIBRES TWR/APP
Warning: Do not use this data for real-world aviation or navigation. No guarantee of current accuracy is given.